Location: Nairn
(57.5833°N, 3.8667°W)
Time: 01:08:56
(UTC+00:00)

Transit 2A - Pass Details

Date: 04 December 2020
Orbit: 598 x 960 km, 66.7° (Epoch: 20 January)

Event Time Altitude Azimuth Distance (km) Brightness Sun altitude
Rises 21:11:43 0° 293° (WNW) 3,498 10.2 -42.9°
Reaches altitude 10° 21:14:35 10° 303° (WNW) 2,503 9.3 -43.2°
Enters shadow 21:16:00 16° 311° (NW) 2,051 8.7 -43.4°
